Вернуться в каталог

NOAA 16 DEB

АктивенSSO
NORAD 42422·DEBRIS·🇺🇸 United States

Запущен Sep 21, 2000 с Vandenberg Space Force Base

Loading…

Ближайшие Пролёты (ближайшие 24 часа)

TLE

СвежийSource: Space-Track

Эпоха: Sep 14, 2026, 03:42 UTC

1 42422U 00055TS  26257.15431997  .00003263  00000-0  11480-2 0  9995
2 42422  98.7842   5.3803 0010688  41.8490 318.3510 14.35559490539779

Отслеживайте NOAA 16 DEB в реальном времени с AllMySat

Download on the App Store